Location: Newark
(49.3667°N, 21.6167°E)
Time: 23:19:18
(UTC+00:00)

Envisat - Pass Details

Date: 17 December 2019
Orbit: 764 x 766 km, 98.1° (Epoch: 21 January)

Event Time Altitude Azimuth Distance (km) Brightness Sun altitude
Rises 16:36:26 0° 173° (S) 3,221 6.3 -18.6°
Reaches altitude 10° 16:38:45 10° 177° (S) 2,299 5.6 -19.0°
Maximum altitude 16:43:47 63° 258° (WSW) 854 3.4 -19.7°
Drops below altitude 10° 16:48:51 10° 340° (NNW) 2,316 5.6 -20.6°
Sets 16:51:12 0° 344° (NNW) 3,246 6.3 -20.9°
